Погода в Наррандере

Австралия     34°44′52″S   146°33′01″E
темп.,
°C
ветер,
м/с
пор.,
м/с
влажн.,
%
обл.,
%
осадки,
мм/ч
давл.,
гПа
погр.,
м
16 сентября, чт
чт1601:00+5в22890 0.0 102420
04:00+5в33911 0.0 102429
07:00+5всв35900 0.0 1024104
10:00+14всв33580 0.0 1024691
13:00+18ссв12443 0.0 10211799
16:00+18з114113 0.0 10191926
19:00+11юв22717 0.0 102018
22:00+9св34790 0.0 102150
17 сентября, пт
пт1701:00+7св33810 0.0 102135
04:00+6всв35830 0.0 102066
07:00+7всв410820 0.0 1020191
10:00+17ссв68501 0.0 1019757
13:00+22ссв6738100 0.0 10161506
16:00+20с3549100 0.0 1015141
19:00+16с3365100 0.1 101649
22:00+13св4993100 0.7 1015215
18 сентября, сб
сб1801:00+13ссв41391100 0.1 1014364
04:00+13ссз6169098 1.0 1013642
07:00+13зсз4798100 3.7 1015393
10:00+14зюз467420 4.5 1016723
13:00+19з7104111 0.0 10151974
16:00+17з7113915 0.0 10162525
19:00+12з4104861 0.0 1018253
22:00+8зюз34632 0.0 102144
19 сентября, вс
вс1901:00+5сз12800 0.0 102210
04:00+4сз22860 0.0 102214
07:00+6ссз23800 0.0 102378
10:00+15зсз58500 0.0 10221246
13:00+18зсз811365 0.0 10191971
16:00+19зсз711405 0.0 10172241
19:00+12сз34544 0.0 101747
22:00+10сз35615 0.0 101769
20 сентября, пн
пн2001:00+10сз4135210 0.0 1016269
04:00+8сз49715 0.0 1015161
07:00+8сз4118128 0.0 1016284
10:00+16зсз61064100 0.1 10161235
13:00+14юз7988100 1.4 1014841
16:00+10ююз3796100 2.8 1013436
19:00+9зсз31197100 1.1 1014445
22:00+8зюз2391100 1.2 101661